GW2620 Weather Reports


time (UTC)temp
C
wind
direction
speed
KPH
gust
KPH
rain 1hr
cm
rain 24hr
cm
rain mn
cm
humidity
%
barometer
mb
20260901020003 15 164 1.6 3.2 0.00 0.10 0.03 80 1017.5
20260901015503 15 164 1.6 3.2 0.00 0.10 0.03 80 1017.5
20260901015003 15 164 1.6 3.2 0.00 0.10 0.03 80 1017.5
20260901014524 15 117 1.6 3.2 0.00 0.10 0.03 80 1017.3
20260901014024 15 117 1.6 3.2 0.00 0.10 0.03 80 1017.3
20260901013503 15 117 1.6 3.2 0.00 0.10 0.03 80 1017.3
20260901013003 15 146 0.0 3.2 0.00 0.10 0.03 78 1017.4
20260901012503 15 146 0.0 3.2 0.00 0.10 0.03 78 1017.4
20260901012024 15 146 0.0 3.2 0.00 0.10 0.03 78 1017.4
20260901011503 15 0 0.0 0.0 0.00 0.10 0.03 76 1017.4
20260901011003 15 0 0.0 0.0 0.00 0.10 0.03 76 1017.4
20260901010503 15 0 0.0 0.0 0.00 0.10 0.03 76 1017.4
20260901010003 16 159 1.6 3.2 0.00 0.10 0.03 73 1017.4
20260901005503 16 159 1.6 3.2 0.00 0.10 0.03 73 1017.4
20260901005024 16 159 1.6 3.2 0.00 0.10 0.03 73 1017.4
20260901004503 17 163 1.6 3.2 0.00 0.10 0.03 70 1017.3
20260901004003 17 163 1.6 3.2 0.00 0.10 0.03 70 1017.3
20260901003503 17 163 1.6 3.2 0.00 0.10 0.03 70 1017.3
20260901003003 17 169 1.6 6.4 0.00 0.10 0.03 67 1017.2
20260901002503 17 169 1.6 6.4 0.00 0.10 0.03 67 1017.2
20260901002003 17 169 1.6 6.4 0.00 0.10 0.03 67 1017.2
20260901001503 18 147 1.6 4.8 0.00 0.10 0.03 65 1017.0
20260901001003 18 147 1.6 4.8 0.00 0.10 0.03 65 1017.0
20260901000503 18 147 1.6 4.8 0.00 0.10 0.03 65 1017.0
20260901000003 18 164 1.6 6.4 0.00 0.10 0.03 62 1016.7
20260831235503 18 164 1.6 6.4 0.00 0.10 0.03 62 1016.7
20260831235003 18 164 1.6 6.4 0.00 0.10 0.03 62 1016.7
20260831234503 19 168 3.2 6.4 0.00 0.10 0.03 60 1016.8
20260831234024 19 168 3.2 6.4 0.00 0.10 0.03 60 1016.8
20260831233524 19 168 3.2 6.4 0.00 0.10 0.03 60 1016.8
20260831233003 20 183 1.6 6.4 0.00 0.10 0.03 57 1017.1
20260831232503 20 183 1.6 6.4 0.00 0.10 0.03 57 1017.1
20260831232003 20 183 1.6 6.4 0.00 0.10 0.03 57 1017.1
20260831231524 21 188 1.6 6.4 0.00 0.10 0.03 54 1017.0
20260831231003 21 188 1.6 6.4 0.00 0.10 0.03 54 1017.0
20260831230503 21 188 1.6 6.4 0.00 0.10 0.03 54 1017.0
20260831230003 22 169 3.2 9.7 0.00 0.10 0.03 51 1017.0
20260831225503 22 169 3.2 9.7 0.00 0.10 0.03 51 1017.0
20260831225024 22 169 3.2 9.7 0.00 0.10 0.03 51 1017.0
20260831224503 23 169 3.2 11.3 0.00 0.10 0.03 48 1017.1
20260831224003 23 169 3.2 11.3 0.00 0.10 0.03 48 1017.1
20260831223524 23 169 3.2 11.3 0.00 0.10 0.03 48 1017.1
20260831223003 23 184 3.2 12.9 0.00 0.10 0.03 47 1017.1
20260831222503 23 184 3.2 12.9 0.00 0.10 0.03 47 1017.1
20260831222003 23 184 3.2 12.9 0.00 0.10 0.03 47 1017.1
20260831221503 24 152 3.2 12.9 0.00 0.10 0.03 45 1016.9
20260831221024 24 152 3.2 12.9 0.00 0.10 0.03 45 1016.9
20260831220503 24 152 3.2 12.9 0.00 0.10 0.03 45 1016.9
20260831220003 24 178 4.8 12.9 0.00 0.10 0.03 43 1017.0
20260831215503 24 178 4.8 12.9 0.00 0.10 0.03 43 1017.0
20260831215003 24 178 4.8 12.9 0.00 0.10 0.03 43 1017.0
20260831214503 25 171 4.8 12.9 0.00 0.10 0.03 43 1017.0
20260831214003 25 171 4.8 12.9 0.00 0.10 0.03 43 1017.0
20260831213524 25 171 4.8 12.9 0.00 0.10 0.03 43 1017.0
20260831213003 25 164 4.8 14.5 0.00 0.10 0.03 42 1017.1
20260831212524 25 164 4.8 14.5 0.00 0.10 0.03 42 1017.1
20260831212003 25 164 4.8 14.5 0.00 0.10 0.03 42 1017.1
20260831211503 25 188 3.2 8.0 0.00 0.10 0.03 40 1017.0
20260831211003 25 188 3.2 8.0 0.00 0.10 0.03 40 1017.0
20260831210503 25 188 3.2 8.0 0.00 0.10 0.03 40 1017.0
20260831210003 25 162 6.4 19.3 0.00 0.10 0.03 40 1017.0
20260831205503 25 162 6.4 19.3 0.00 0.10 0.03 40 1017.0
20260831205003 25 162 6.4 19.3 0.00 0.10 0.03 40 1017.0
20260831204503 26 254 4.8 14.5 0.00 0.10 0.03 32 1017.0
20260831204024 26 254 4.8 14.5 0.00 0.10 0.03 32 1017.0
20260831203503 26 254 4.8 14.5 0.00 0.10 0.03 32 1017.0
20260831203003 26 278 3.2 14.5 0.00 0.10 0.03 33 1017.1
20260831202503 26 278 3.2 14.5 0.00 0.10 0.03 33 1017.1
20260831202003 26 278 3.2 14.5 0.00 0.10 0.03 33 1017.1
20260831201524 26 236 4.8 11.3 0.00 0.10 0.03 33 1017.0
20260831201003 26 236 4.8 11.3 0.00 0.10 0.03 33 1017.0
20260831200524 26 236 4.8 11.3 0.00 0.10 0.03 33 1017.0
20260831200003 26 151 1.6 6.4 0.00 0.10 0.03 35 1017.0
20260831195503 26 151 1.6 6.4 0.00 0.10 0.03 35 1017.0
20260831195003 26 151 1.6 6.4 0.00 0.10 0.03 35 1017.0
20260831194503 26 260 3.2 6.4 0.00 0.10 0.03 34 1017.2
20260831194024 26 260 3.2 6.4 0.00 0.10 0.03 34 1017.2
20260831193503 26 260 3.2 6.4 0.00 0.10 0.03 34 1017.2
20260831193003 25 280 4.8 12.9 0.00 0.10 0.03 34 1017.4
20260831192503 25 280 4.8 12.9 0.00 0.10 0.03 34 1017.4
20260831192003 25 280 4.8 12.9 0.00 0.10 0.03 34 1017.4
20260831191524 25 329 3.2 9.7 0.00 0.10 0.03 34 1017.5
20260831191003 25 329 3.2 9.7 0.00 0.10 0.03 34 1017.5
20260831190503 25 329 3.2 9.7 0.00 0.10 0.03 34 1017.5
20260831190003 25 323 1.6 4.8 0.00 0.10 0.03 36 1017.6
20260831185503 25 323 1.6 4.8 0.00 0.10 0.03 36 1017.6
20260831185024 25 323 1.6 4.8 0.00 0.10 0.03 36 1017.6
20260831184503 25 275 4.8 14.5 0.00 0.10 0.03 38 1017.9
20260831184003 25 275 4.8 14.5 0.00 0.10 0.03 38 1017.9
20260831183503 25 275 4.8 14.5 0.00 0.10 0.03 38 1017.9
20260831183024 24 99 3.2 9.7 0.00 0.10 0.03 38 1017.9
20260831182503 24 99 3.2 9.7 0.00 0.10 0.03 38 1017.9
20260831182003 24 99 3.2 9.7 0.00 0.10 0.03 38 1017.9
20260831181503 24 265 3.2 11.3 0.00 0.10 0.03 39 1018.1
20260831181003 24 265 3.2 11.3 0.00 0.10 0.03 39 1018.1
20260831180503 24 265 3.2 11.3 0.00 0.10 0.03 39 1018.1
20260831180003 23 288 4.8 16.1 0.00 0.10 0.03 41 1018.2
20260831175503 23 288 4.8 16.1 0.00 0.10 0.03 41 1018.2
20260831175003 23 288 4.8 16.1 0.00 0.10 0.03 41 1018.2
20260831174524 23 278 4.8 11.3 0.00 0.10 0.03 40 1018.5
20260831174003 23 278 4.8 11.3 0.00 0.10 0.03 40 1018.5
20260831173503 23 278 4.8 11.3 0.00 0.10 0.03 40 1018.5
20260831173003 22 277 4.8 14.5 0.00 0.10 0.03 43 1018.5
20260831172503 22 277 4.8 14.5 0.00 0.10 0.03 43 1018.5
20260831172003 22 277 4.8 14.5 0.00 0.10 0.03 43 1018.5
20260831171503 22 353 4.8 14.5 0.00 0.10 0.03 44 1018.6
20260831171003 22 353 4.8 14.5 0.00 0.10 0.03 44 1018.6
20260831170503 22 353 4.8 14.5 0.00 0.10 0.03 44 1018.6
20260831170003 22 295 3.2 11.3 0.00 0.10 0.03 43 1018.8
20260831165503 22 295 3.2 11.3 0.00 0.10 0.03 43 1018.8
20260831165003 22 295 3.2 11.3 0.00 0.10 0.03 43 1018.8
20260831164503 22 22 3.2 17.7 0.00 0.10 0.03 43 1018.9
20260831164003 22 22 3.2 17.7 0.00 0.10 0.03 43 1018.9
20260831163503 22 22 3.2 17.7 0.00 0.10 0.03 43 1018.9
20260831163003 21 351 4.8 14.5 0.00 0.10 0.03 42 1018.8
20260831162503 21 351 4.8 14.5 0.00 0.10 0.03 42 1018.8
20260831162003 21 351 4.8 14.5 0.00 0.10 0.03 42 1018.8
20260831161503 21 318 3.2 9.7 0.00 0.10 0.03 46 1019.0
20260831161003 21 318 3.2 9.7 0.00 0.10 0.03 46 1019.0
20260831160503 21 318 3.2 9.7 0.00 0.10 0.03 46 1019.0
20260831160003 21 358 4.8 9.7 0.00 0.10 0.03 46 1019.3
20260831155503 21 358 4.8 9.7 0.00 0.10 0.03 46 1019.3
20260831155003 21 358 4.8 9.7 0.00 0.10 0.03 46 1019.3
20260831154503 21 330 4.8 14.5 0.00 0.10 0.03 45 1019.5
20260831154003 21 330 4.8 14.5 0.00 0.10 0.03 45 1019.5
20260831153503 21 330 4.8 14.5 0.00 0.10 0.03 45 1019.5
20260831153003 20 296 6.4 17.7 0.00 0.10 0.03 46 1019.6
20260831152503 20 296 6.4 17.7 0.00 0.10 0.03 46 1019.6
20260831152024 20 296 6.4 17.7 0.00 0.10 0.03 46 1019.6
20260831151503 20 24 4.8 12.9 0.00 0.10 0.03 47 1019.7
20260831151003 20 24 4.8 12.9 0.00 0.10 0.03 47 1019.7
20260831150503 20 24 4.8 12.9 0.00 0.10 0.03 47 1019.7
20260831150003 20 298 4.8 12.9 0.00 0.10 0.03 50 1019.9
20260831145503 20 298 4.8 12.9 0.00 0.10 0.03 50 1019.9
20260831145003 20 298 4.8 12.9 0.00 0.10 0.03 50 1019.9
20260831144503 19 318 4.8 12.9 0.00 0.10 0.03 48 1019.9
20260831144003 19 318 4.8 12.9 0.00 0.10 0.03 48 1019.9
20260831143503 19 318 4.8 12.9 0.00 0.10 0.03 48 1019.9
20260831143003 18 302 4.8 11.3 0.00 0.10 0.03 50 1020.0
20260831142503 18 302 4.8 11.3 0.00 0.10 0.03 50 1020.0
20260831142003 18 302 4.8 11.3 0.00 0.10 0.03 50 1020.0
20260831141503 18 292 4.8 11.3 0.00 0.10 0.03 56 1020.0
20260831141003 18 292 4.8 11.3 0.00 0.10 0.03 56 1020.0
20260831140524 18 292 4.8 11.3 0.00 0.10 0.03 56 1020.0
20260831140003 18 279 6.4 14.5 0.00 0.10 0.03 58 1020.0
20260831135503 18 279 6.4 14.5 0.00 0.10 0.03 58 1020.0
20260831135003 18 279 6.4 14.5 0.00 0.10 0.03 58 1020.0
20260831134503 17 296 4.8 12.9 0.00 0.10 0.03 61 1019.7
20260831134003 17 296 4.8 12.9 0.00 0.10 0.03 61 1019.7
20260831133503 17 296 4.8 12.9 0.00 0.10 0.03 61 1019.7
20260831133003 17 335 3.2 12.9 0.00 0.10 0.03 64 1019.6
20260831132503 17 335 3.2 12.9 0.00 0.10 0.03 64 1019.6
20260831132003 17 335 3.2 12.9 0.00 0.10 0.03 64 1019.6
20260831131503 17 320 3.2 8.0 0.00 0.10 0.03 70 1019.5
20260831131024 17 320 3.2 8.0 0.00 0.10 0.03 70 1019.5
20260831130503 17 320 3.2 8.0 0.00 0.10 0.03 70 1019.5
20260831130003 16 301 3.2 8.0 0.00 0.10 0.03 74 1019.4
20260831125503 16 301 3.2 8.0 0.00 0.10 0.03 74 1019.4
20260831125003 16 301 3.2 8.0 0.00 0.10 0.03 74 1019.4
20260831124503 16 281 3.2 9.7 0.00 0.10 0.03 77 1019.3
20260831124003 16 281 3.2 9.7 0.00 0.10 0.03 77 1019.3
20260831123503 16 281 3.2 9.7 0.00 0.10 0.03 77 1019.3
20260831123003 15 303 1.6 4.8 0.00 0.10 0.03 81 1019.3
20260831122503 15 303 1.6 4.8 0.00 0.10 0.03 81 1019.3
20260831122024 15 303 1.6 4.8 0.00 0.10 0.03 81 1019.3
20260831121503 14 321 1.6 3.2 0.00 0.10 0.03 85 1019.3
20260831121003 14 321 1.6 3.2 0.00 0.10 0.03 85 1019.3
20260831120503 14 321 1.6 3.2 0.00 0.10 0.03 85 1019.3
20260831120003 13 290 1.6 3.2 0.00 0.10 0.03 87 1019.4
20260831115503 13 290 1.6 3.2 0.00 0.10 0.03 87 1019.4
20260831115003 13 290 1.6 3.2 0.00 0.10 0.03 87 1019.4
20260831114503 12 296 1.6 4.8 0.00 0.10 0.03 87 1019.3
20260831114003 12 296 1.6 4.8 0.00 0.10 0.03 87 1019.3
20260831113503 12 296 1.6 4.8 0.00 0.10 0.03 87 1019.3
20260831113003 12 316 1.6 6.4 0.00 0.10 0.03 88 1019.2
20260831112503 12 316 1.6 6.4 0.00 0.10 0.03 88 1019.2
20260831112003 12 316 1.6 6.4 0.00 0.10 0.03 88 1019.2
20260831111503 12 345 1.6 3.2 0.00 0.10 0.03 89 1019.0
20260831111024 12 345 1.6 3.2 0.00 0.10 0.03 89 1019.0
20260831110524 12 345 1.6 3.2 0.00 0.10 0.03 89 1019.0
20260831110024 12 19 1.6 3.2 0.00 0.10 0.03 90 1018.8
20260831105503 12 19 1.6 3.2 0.00 0.10 0.03 90 1018.8
20260831105024 12 19 1.6 3.2 0.00 0.10 0.03 90 1018.8
20260831104503 12 289 0.0 3.2 0.00 0.10 0.03 90 1018.9
20260831104003 12 289 0.0 3.2 0.00 0.10 0.03 90 1018.9
20260831103503 12 289 0.0 3.2 0.00 0.10 0.03 90 1018.9
20260831103003 12 279 0.0 3.2 0.00 0.10 0.03 90 1018.8
20260831102524 12 279 0.0 3.2 0.00 0.10 0.03 90 1018.8
20260831102003 12 279 0.0 3.2 0.00 0.10 0.03 90 1018.8
20260831101503 11 249 0.0 3.2 0.00 0.10 0.03 90 1018.7
20260831101024 11 249 0.0 3.2 0.00 0.10 0.03 90 1018.7
20260831100503 11 249 0.0 3.2 0.00 0.10 0.03 90 1018.7
20260831100003 12 249 0.0 3.2 0.00 0.10 0.03 90 1018.4
20260831095503 12 249 0.0 3.2 0.00 0.10 0.03 90 1018.4
20260831095003 12 249 0.0 3.2 0.00 0.10 0.03 90 1018.4
20260831094503 12 249 0.0 3.2 0.03 0.10 0.03 90 1018.3
20260831094003 12 249 0.0 3.2 0.03 0.10 0.03 90 1018.3
20260831093503 12 249 0.0 3.2 0.03 0.10 0.03 90 1018.3
20260831093024 12 271 1.6 3.2 0.03 0.10 0.03 89 1018.2
20260831092503 12 271 1.6 3.2 0.03 0.10 0.03 89 1018.2
20260831092003 12 271 1.6 3.2 0.03 0.10 0.03 89 1018.2
20260831091503 12 314 0.0 3.2 0.03 0.10 0.03 88 1018.0
20260831091024 12 314 0.0 3.2 0.03 0.10 0.03 88 1018.0
20260831090503 12 314 0.0 3.2 0.03 0.10 0.03 88 1018.0
20260831090003 12 314 0.0 3.2 0.03 0.10 0.03 88 1017.8
20260831085503 12 314 0.0 3.2 0.03 0.10 0.03 88 1017.8
20260831085003 12 314 0.0 3.2 0.03 0.10 0.03 88 1017.8
20260831084503 13 300 1.6 3.2 0.00 0.08 0.00 87 1017.8
20260831084003 13 300 1.6 3.2 0.00 0.08 0.00 87 1017.8
20260831083503 13 300 1.6 3.2 0.00 0.08 0.00 87 1017.8
20260831083003 13 34 1.6 3.2 0.00 0.08 0.00 87 1017.7
20260831082503 13 34 1.6 3.2 0.00 0.08 0.00 87 1017.7
20260831082003 13 34 1.6 3.2 0.00 0.08 0.00 87 1017.7
20260831081524 13 320 3.2 9.7 0.00 0.08 0.00 87 1017.4
20260831081024 13 320 3.2 9.7 0.00 0.08 0.00 87 1017.4
20260831080503 13 320 3.2 9.7 0.00 0.08 0.00 87 1017.4
20260831080003 13 343 3.2 8.0 0.00 0.08 0.00 88 1017.4
20260831075503 13 343 3.2 8.0 0.00 0.08 0.00 88 1017.4
20260831075003 13 343 3.2 8.0 0.00 0.08 0.00 88 1017.4
20260831074524 13 290 1.6 8.0 0.00 0.08 0.00 87 1017.2
20260831074003 13 290 1.6 8.0 0.00 0.08 0.00 87 1017.2
20260831073524 13 290 1.6 8.0 0.00 0.08 0.00 87 1017.2
20260831073003 13 299 1.6 6.4 0.00 0.08 0.00 87 1017.2
20260831072503 13 299 1.6 6.4 0.00 0.08 0.00 87 1017.2
20260831072003 13 299 1.6 6.4 0.00 0.08 0.00 87 1017.2
20260831071524 13 307 3.2 11.3 0.00 0.08 0.00 87 1017.2
20260831071003 13 307 3.2 11.3 0.00 0.08 0.00 87 1017.2
20260831070503 13 307 3.2 11.3 0.00 0.08 0.00 87 1017.2
20260831070003 13 291 3.2 9.7 0.00 0.08 0.00 88 1017.3
20260831065503 13 291 3.2 9.7 0.00 0.08 0.00 88 1017.3
20260831065003 13 291 3.2 9.7 0.00 0.08 0.00 88 1017.3
20260831064503 13 308 3.2 8.0 0.00 0.08 0.00 88 1017.3
20260831064003 13 308 3.2 8.0 0.00 0.08 0.00 88 1017.3
20260831063503 13 308 3.2 8.0 0.00 0.08 0.00 88 1017.3
20260831063003 13 307 3.2 8.0 0.00 0.08 0.00 89 1017.4
20260831062503 13 307 3.2 8.0 0.00 0.08 0.00 89 1017.4
20260831062003 13 307 3.2 8.0 0.00 0.08 0.00 89 1017.4
20260831061503 13 308 3.2 8.0 0.00 0.08 0.00 89 1016.7
20260831061003 13 308 3.2 8.0 0.00 0.08 0.00 89 1016.7
20260831060503 13 308 3.2 8.0 0.00 0.08 0.00 89 1016.7
20260831060024 13 86 1.6 4.8 0.00 0.08 0.00 91 1016.7
20260831055503 13 86 1.6 4.8 0.00 0.08 0.00 91 1016.7
20260831055003 13 86 1.6 4.8 0.00 0.08 0.00 91 1016.7
20260831054503 13 15 1.6 3.2 0.00 0.08 0.00 89 1016.6
20260831054003 13 15 1.6 3.2 0.00 0.08 0.00 89 1016.6
20260831053503 13 15 1.6 3.2 0.00 0.08 0.00 89 1016.6
20260831053003 14 298 1.6 4.8 0.00 0.08 0.00 88 1016.5
20260831052503 14 298 1.6 4.8 0.00 0.08 0.00 88 1016.5
20260831052003 14 298 1.6 4.8 0.00 0.08 0.00 88 1016.5
20260831051503 14 277 1.6 4.8 0.00 0.08 0.00 89 1016.4
20260831051003 14 277 1.6 4.8 0.00 0.08 0.00 89 1016.4
20260831050503 14 277 1.6 4.8 0.00 0.08 0.00 89 1016.4
20260831050024 14 264 1.6 4.8 0.00 0.08 0.00 89 1016.2
20260831045503 14 264 1.6 4.8 0.00 0.08 0.00 89 1016.2
20260831045003 14 264 1.6 4.8 0.00 0.08 0.00 89 1016.2
20260831044503 14 295 1.6 3.2 0.00 0.08 0.00 90 1016.1
20260831044003 14 295 1.6 3.2 0.00 0.08 0.00 90 1016.1
20260831043503 14 295 1.6 3.2 0.00 0.08 0.00 90 1016.1
20260831043003 15 259 1.6 4.8 0.00 0.08 0.00 90 1016.2
20260831042503 15 259 1.6 4.8 0.00 0.08 0.00 90 1016.2
20260831042003 15 259 1.6 4.8 0.00 0.08 0.00 90 1016.2
20260831041524 15 286 0.0 3.2 0.00 0.08 0.00 91 1016.3
20260831041003 15 286 0.0 3.2 0.00 0.08 0.00 91 1016.3
20260831040503 15 286 0.0 3.2 0.00 0.08 0.00 91 1016.3
20260831040024 15 279 1.6 4.8 0.00 0.08 0.00 91 1016.3
20260831035524 15 279 1.6 4.8 0.00 0.08 0.08 91 1016.3
20260831035003 15 279 1.6 4.8 0.00 0.08 0.08 91 1016.3
20260831034503 15 285 1.6 4.8 0.00 0.08 0.08 91 1016.2
20260831034003 15 285 1.6 4.8 0.00 0.08 0.08 91 1016.2
20260831033503 15 285 1.6 4.8 0.00 0.08 0.08 91 1016.2
20260831033003 15 250 0.0 3.2 0.00 0.08 0.08 91 1016.2
20260831032503 15 250 0.0 3.2 0.00 0.08 0.08 91 1016.2
20260831032003 15 250 0.0 3.2 0.00 0.08 0.08 91 1016.2
20260831031524 15 233 1.6 3.2 0.03 0.08 0.08 90 1016.1
20260831031003 15 233 1.6 3.2 0.03 0.08 0.08 90 1016.1
20260831030503 15 233 1.6 3.2 0.03 0.08 0.08 90 1016.1
20260831030003 15 296 0.0 3.2 0.08 0.08 0.08 89 1016.2
20260831025503 15 296 0.0 3.2 0.08 0.08 0.08 89 1016.2
20260831025003 15 296 0.0 3.2 0.08 0.08 0.08 89 1016.2
20260831024503 15 288 1.6 4.8 0.08 0.08 0.08 88 1016.5
20260831024003 15 288 1.6 4.8 0.08 0.08 0.08 88 1016.5
20260831023503 15 288 1.6 4.8 0.08 0.08 0.08 88 1016.5
20260831023003 16 309 1.6 6.4 0.08 0.08 0.08 85 1016.6
20260831022503 16 309 1.6 6.4 0.08 0.08 0.08 85 1016.6
20260831022024 16 309 1.6 6.4 0.08 0.08 0.08 85 1016.6
20260831021503 17 341 6.4 17.7 0.05 0.05 0.05 79 1016.5
20260831021003 17 341 6.4 17.7 0.05 0.05 0.05 79 1016.5
20260831020503 17 341 6.4 17.7 0.05 0.05 0.05 79 1016.5